MSC Giovanna — 3FRB9 — position and weather

sailwx.info

Track history (hours):
 
Tides and Currents Weather Stations Pressure Air Temp Water Temp Dewpoint Dewpoint Depression Visibility Wind Speed Wind Dir Waves Ship Positions

MSC Giovanna

Last reported at 2014-Nov-28 23:20 UTC. Time now 2014-Nov-29 01:22 UTC.
Position N 34°25' E 024°56'.

Length 178 m; draft 9.1 m.

Type: Ship (hazmat cat A). MMSI: 357702000.

Date/timePositionNaut miles runAvg speedWind from/ knotsBaromVisibWave heightAir tempDewpointWater temp
2014-Nov-28 23:20N 34°25' E 024°56'1214.8
2014-Nov-28 22:33N 34°20' E 025°08'  
2014-Nov-22 18:15N 35°55' E 032°54'29613.7
2014-Nov-21 20:32N 36°38' E 026°50'1414.1
2014-Nov-21 19:33N 36°45' E 026°35'1414.1
2014-Nov-21 18:33N 36°52' E 026°20'1414.1
2014-Nov-21 17:33N 37°01' E 026°06'1514.7
2014-Nov-21 16:33N 37°10' E 025°51'1414.1
2014-Nov-21 15:33N 37°15' E 025°35'1414.1
2014-Nov-21 14:33N 37°15' E 025°17'1414.2
2014-Nov-21 13:33N 37°14' E 024°59'1414.1
2014-Nov-21 12:33N 37°13' E 024°42'1414.0
2014-Nov-21 11:33N 37°15' E 024°24'1414.1
2014-Nov-21 10:33N 37°20' E 024°07'1613.8
2014-Nov-21 09:26N 37°27' E 023°50'1314.5
2014-Nov-21 08:32N 37°39' E 023°43'1313.9
2014-Nov-21 07:33N 37°50' E 023°34'2 1.8
2014-Nov-21 06:31N 37°51' E 023°32'0 0.0
2014-Nov-21 05:31N 37°51' E 023°32'0 0.0
2014-Nov-21 04:33N 37°51' E 023°32'0 0.0
2014-Nov-21 03:33N 37°51' E 023°32'0 0.0
2014-Nov-21 02:31N 37°51' E 023°32'0 0.0
2014-Nov-21 01:31N 37°51' E 023°32'0 0.0
2014-Nov-21 00:31N 37°51' E 023°32'0 0.0
2014-Nov-20 23:31N 37°51' E 023°32'0 0.0
2014-Nov-20 22:31N 37°51' E 023°32'0 0.0
2014-Nov-20 21:31N 37°51' E 023°32'0 0.0
2014-Nov-20 20:31N 37°51' E 023°32'0 0.0
2014-Nov-20 19:31N 37°51' E 023°32'0 0.0
2014-Nov-20 18:31N 37°51' E 023°32'0 0.0
2014-Nov-20 17:31N 37°51' E 023°32'0 0.0
2014-Nov-20 16:31N 37°51' E 023°32'0 0.0
2014-Nov-20 15:31N 37°51' E 023°32'0 0.0
2014-Nov-20 14:31N 37°51' E 023°32'0 0.0
2014-Nov-20 13:31N 37°51' E 023°32'0 0.1
2014-Nov-20 12:31N 37°51' E 023°32'0 0.0
2014-Nov-20 11:31N 37°51' E 023°32'0 0.0
2014-Nov-20 10:31N 37°51' E 023°32'0 0.0
2014-Nov-20 09:31N 37°51' E 023°32'0 0.0
2014-Nov-20 08:33N 37°51' E 023°32'0 0.0
2014-Nov-20 07:32N 37°51' E 023°32'0 0.0
2014-Nov-20 06:33N 37°51' E 023°32'0 0.0
2014-Nov-20 05:32N 37°51' E 023°32'0 0.0
2014-Nov-20 04:33N 37°51' E 023°32'0 0.0
2014-Nov-20 03:33N 37°51' E 023°32'0 0.0
2014-Nov-20 02:31N 37°51' E 023°32'0 0.1
2014-Nov-20 01:32N 37°51' E 023°32'0 0.0
2014-Nov-20 00:32N 37°51' E 023°32'0 0.0
2014-Nov-19 23:31N 37°51' E 023°32'0 0.0
2014-Nov-19 22:31N 37°51' E 023°32'0 0.0
2014-Nov-19 21:32N 37°51' E 023°32'0 0.0
2014-Nov-19 20:32N 37°51' E 023°32'0 0.0
2014-Nov-19 19:32N 37°51' E 023°32'0 0.1
2014-Nov-19 18:32N 37°51' E 023°32'5 4.7
2014-Nov-19 17:33N 37°55' E 023°36'3 2.5
2014-Nov-19 16:32N 37°57' E 023°36'0 0.0
2014-Nov-19 15:32N 37°57' E 023°36'0 0.0
2014-Nov-19 14:32N 37°57' E 023°36'0 0.0
2014-Nov-19 13:32N 37°57' E 023°36'0 0.0
2014-Nov-19 12:32N 37°57' E 023°36'0 0.0
2014-Nov-19 11:33N 37°57' E 023°36'0 0.0
2014-Nov-19 10:29N 37°57' E 023°36'0 0.0
2014-Nov-19 09:32N 37°57' E 023°36'0 0.0
2014-Nov-19 08:32N 37°57' E 023°36'0 0.0
2014-Nov-19 07:31N 37°57' E 023°36'0 0.0
2014-Nov-19 06:32N 37°57' E 023°36'1 1.2
2014-Nov-19 05:33N 37°56' E 023°36'1 1.2
2014-Nov-19 04:33N 37°55' E 023°35'0 0.5
2014-Nov-19 03:33N 37°55' E 023°36'5 5.5
2014-Nov-19 02:33N 37°50' E 023°39'7 6.9
2014-Nov-19 01:33N 37°44' E 023°43'1211.6
2014-Nov-19 00:31N 37°32' E 023°44'1414.5
2014-Nov-18 23:33N 37°18' E 023°40'  
Track history (hours):
 
Tides and Currents Weather Stations Pressure Air Temp Water Temp Dewpoint Dewpoint Depression Visibility Wind Speed Wind Dir Waves Ship Positions

MSC Giovanna

Last reported at 2014-Nov-28 23:20 UTC. Time now 2014-Nov-29 01:22 UTC.
Position N 34°25' E 024°56'.

Length 178 m; draft 9.1 m.

Type: Ship (hazmat cat A). MMSI: 357702000.

Date/timePositionNaut miles runAvg speedWind from/ knotsBaromVisibWave heightAir tempDewpointWater temp
2014-Nov-28 23:20N 34°25' E 024°56'1214.8
2014-Nov-28 22:33N 34°20' E 025°08'  
2014-Nov-22 18:15N 35°55' E 032°54'29613.7
2014-Nov-21 20:32N 36°38' E 026°50'1414.1
2014-Nov-21 19:33N 36°45' E 026°35'1414.1
2014-Nov-21 18:33N 36°52' E 026°20'1414.1
2014-Nov-21 17:33N 37°01' E 026°06'1514.7
2014-Nov-21 16:33N 37°10' E 025°51'1414.1
2014-Nov-21 15:33N 37°15' E 025°35'1414.1
2014-Nov-21 14:33N 37°15' E 025°17'1414.2
2014-Nov-21 13:33N 37°14' E 024°59'1414.1
2014-Nov-21 12:33N 37°13' E 024°42'1414.0
2014-Nov-21 11:33N 37°15' E 024°24'1414.1
2014-Nov-21 10:33N 37°20' E 024°07'1613.8
2014-Nov-21 09:26N 37°27' E 023°50'1314.5
2014-Nov-21 08:32N 37°39' E 023°43'1313.9
2014-Nov-21 07:33N 37°50' E 023°34'2 1.8
2014-Nov-21 06:31N 37°51' E 023°32'0 0.0
2014-Nov-21 05:31N 37°51' E 023°32'0 0.0
2014-Nov-21 04:33N 37°51' E 023°32'0 0.0
2014-Nov-21 03:33N 37°51' E 023°32'0 0.0
2014-Nov-21 02:31N 37°51' E 023°32'0 0.0
2014-Nov-21 01:31N 37°51' E 023°32'0 0.0
2014-Nov-21 00:31N 37°51' E 023°32'0 0.0
2014-Nov-20 23:31N 37°51' E 023°32'0 0.0
2014-Nov-20 22:31N 37°51' E 023°32'0 0.0
2014-Nov-20 21:31N 37°51' E 023°32'0 0.0
2014-Nov-20 20:31N 37°51' E 023°32'0 0.0
2014-Nov-20 19:31N 37°51' E 023°32'0 0.0
2014-Nov-20 18:31N 37°51' E 023°32'0 0.0
2014-Nov-20 17:31N 37°51' E 023°32'0 0.0
2014-Nov-20 16:31N 37°51' E 023°32'0 0.0
2014-Nov-20 15:31N 37°51' E 023°32'0 0.0
2014-Nov-20 14:31N 37°51' E 023°32'0 0.0
2014-Nov-20 13:31N 37°51' E 023°32'0 0.1
2014-Nov-20 12:31N 37°51' E 023°32'0 0.0
2014-Nov-20 11:31N 37°51' E 023°32'0 0.0
2014-Nov-20 10:31N 37°51' E 023°32'0 0.0
2014-Nov-20 09:31N 37°51' E 023°32'0 0.0
2014-Nov-20 08:33N 37°51' E 023°32'0 0.0
2014-Nov-20 07:32N 37°51' E 023°32'0 0.0
2014-Nov-20 06:33N 37°51' E 023°32'0 0.0
2014-Nov-20 05:32N 37°51' E 023°32'0 0.0
2014-Nov-20 04:33N 37°51' E 023°32'0 0.0
2014-Nov-20 03:33N 37°51' E 023°32'0 0.0
2014-Nov-20 02:31N 37°51' E 023°32'0 0.1
2014-Nov-20 01:32N 37°51' E 023°32'0 0.0
2014-Nov-20 00:32N 37°51' E 023°32'0 0.0
2014-Nov-19 23:31N 37°51' E 023°32'0 0.0
2014-Nov-19 22:31N 37°51' E 023°32'0 0.0
2014-Nov-19 21:32N 37°51' E 023°32'0 0.0
2014-Nov-19 20:32N 37°51' E 023°32'0 0.0
2014-Nov-19 19:32N 37°51' E 023°32'0 0.1
2014-Nov-19 18:32N 37°51' E 023°32'5 4.7
2014-Nov-19 17:33N 37°55' E 023°36'3 2.5
2014-Nov-19 16:32N 37°57' E 023°36'0 0.0
2014-Nov-19 15:32N 37°57' E 023°36'0 0.0
2014-Nov-19 14:32N 37°57' E 023°36'0 0.0
2014-Nov-19 13:32N 37°57' E 023°36'0 0.0
2014-Nov-19 12:32N 37°57' E 023°36'0 0.0
2014-Nov-19 11:33N 37°57' E 023°36'0 0.0
2014-Nov-19 10:29N 37°57' E 023°36'0 0.0
2014-Nov-19 09:32N 37°57' E 023°36'0 0.0
2014-Nov-19 08:32N 37°57' E 023°36'0 0.0
2014-Nov-19 07:31N 37°57' E 023°36'0 0.0
2014-Nov-19 06:32N 37°57' E 023°36'1 1.2
2014-Nov-19 05:33N 37°56' E 023°36'1 1.2
2014-Nov-19 04:33N 37°55' E 023°35'0 0.5
2014-Nov-19 03:33N 37°55' E 023°36'5 5.5
2014-Nov-19 02:33N 37°50' E 023°39'7 6.9
2014-Nov-19 01:33N 37°44' E 023°43'1211.6
2014-Nov-19 00:31N 37°32' E 023°44'1414.5
2014-Nov-18 23:33N 37°18' E 023°40'  

Dump ship's entire track history